User: anonymous   Login
Location: Brno
(49.2000°N, 16.6330°E)
Time: 13:53:28
(UTC+02:00)
Language:

RESURS DK-1 - Orbit

View from above orbital plane
View from above orbital plane
View from above satellite
View from above satellite

Ground track
Ground track

The orbit data is extracted from the following two-line orbital elements,

1 29228U 06021A   15143.24644269  .00000912  00000-0  77816-4 0  9998
2 29228 069.9387 220.4693 0002285 022.3238 042.0458 15.01494377494607
Epoch (UTC): 23 May 2015 05:54:52
Eccentricity: 0.0002285
inclination: 69.9387°
perigee height: 561 km
apogee height: 564 km
right ascension of ascending node: 220.4693°
argument of perigee: 22.3238°
revolutions per day: 15.01494377
mean anomaly at epoch: 42.0458°
orbit number at epoch: 49460

The dashed part of the orbit path shows where the satellite is in the earth's shadow,  

DLR